SXS8ZC EDDL-LTAI

Flight info

Callsign SXS8ZC
Flight time N/A
Altitude 37000
Route DODEN1T DODEN Y853 BOMBI DCT DETEV DCT DINKU DCT BESNI DCT GOMIG DCT GOLVA DCT TPL DCT RAVAK DCT NISVA DCT VIT DCT USALI N131 RODIP UN131 KOZLU
Aircraft B38M/M-SDE1FGHILORVWXY/HB1

Departure

Time 2026-02-17 15:33
Airport Düsseldorf Airport (EDDL)

Arrival

Time N/A
Airport Antalya International Airport (LTAI)
Time Latitude Longitude Altitude Speed Heading
2026-02-17 14:59 51.27764 6.76248 126 ft 0 kts 162°
2026-02-17 15:03 51.27785 6.76340 126 ft 0 kts 161°
2026-02-17 15:20 51.27786 6.76340 126 ft 1 kts 161°
2026-02-17 15:20 51.27799 6.76332 127 ft 3 kts 161°
2026-02-17 15:20 51.27818 6.76322 127 ft 3 kts 161°
2026-02-17 15:21 51.27831 6.76310 127 ft 3 kts 114°
2026-02-17 15:21 51.27837 6.76281 129 ft 2 kts 101°
2026-02-17 15:21 51.27839 6.76254 130 ft 3 kts 95°
2026-02-17 15:21 51.27840 6.76222 130 ft 3 kts 89°
2026-02-17 15:22 51.27840 6.76189 130 ft 3 kts 92°
2026-02-17 15:22 51.27841 6.76164 130 ft 3 kts 92°
2026-02-17 15:22 51.27840 6.76132 130 ft 3 kts 84°
2026-02-17 15:23 51.27827 6.76075 126 ft 3 kts 41°
2026-02-17 15:23 51.27818 6.76064 124 ft 2 kts 32°
2026-02-17 15:23 51.27801 6.76051 129 ft 3 kts 18°
2026-02-17 15:23 51.27782 6.76044 128 ft 3 kts
2026-02-17 15:24 51.27762 6.76042 125 ft 3 kts
2026-02-17 15:24 51.27754 6.76042 127 ft 1 kts
2026-02-17 15:26 51.27771 6.76043 126 ft 7 kts
2026-02-17 15:26 51.27845 6.76046 126 ft 13 kts
2026-02-17 15:27 51.28026 6.76047 132 ft 14 kts 359°
2026-02-17 15:27 51.28114 6.76028 128 ft 13 kts 358°
2026-02-17 15:27 51.28186 6.76139 128 ft 19 kts 53°
2026-02-17 15:27 51.28290 6.76358 124 ft 29 kts 52°
2026-02-17 15:28 51.28407 6.76603 126 ft 28 kts 52°
2026-02-17 15:28 51.28524 6.76847 133 ft 27 kts 52°
2026-02-17 15:28 51.28637 6.77084 136 ft 27 kts 53°
2026-02-17 15:28 51.28755 6.77332 134 ft 29 kts 52°
2026-02-17 15:29 51.28879 6.77591 133 ft 30 kts 53°
2026-02-17 15:29 51.28995 6.77836 135 ft 28 kts 53°
2026-02-17 15:29 51.29104 6.78065 136 ft 23 kts 53°
2026-02-17 15:29 51.29192 6.78251 137 ft 20 kts 53°
2026-02-17 15:30 51.29265 6.78403 135 ft 14 kts 53°
2026-02-17 15:30 51.29317 6.78513 136 ft 11 kts 53°
2026-02-17 15:30 51.29384 6.78575 135 ft 11 kts
2026-02-17 15:31 51.29432 6.78570 135 ft 0 kts 355°
2026-02-17 15:31 51.29476 6.78563 136 ft 12 kts 349°
2026-02-17 15:32 51.29514 6.78454 135 ft 13 kts 239°
2026-02-17 15:32 51.29498 6.78422 135 ft 1 kts 232°
2026-02-17 15:32 51.29487 6.78398 135 ft 7 kts 233°
2026-02-17 15:32 51.29303 6.78013 137 ft 84 kts 232°
2026-02-17 15:33 51.28794 6.76938 133 ft 155 kts 234°
2026-02-17 15:33 51.28054 6.75446 621 ft 181 kts 237°
2026-02-17 15:33 51.27283 6.73872 1809 ft 177 kts 240°
2026-02-17 15:33 51.26528 6.72213 2588 ft 194 kts 243°
2026-02-17 15:34 51.25692 6.70354 3112 ft 218 kts 242°
2026-02-17 15:34 51.24766 6.68327 3758 ft 236 kts 242°
2026-02-17 15:34 51.23759 6.66149 4518 ft 248 kts 240°
2026-02-17 15:35 51.20620 6.63415 6424 ft 284 kts 191°
2026-02-17 15:35 51.18609 6.63775 7308 ft 299 kts 166°
2026-02-17 15:35 51.16778 6.65380 8167 ft 309 kts 140°
2026-02-17 15:35 51.15295 6.67895 9072 ft 313 kts 132°
2026-02-17 15:36 51.13986 6.70708 9909 ft 315 kts 114°
2026-02-17 15:36 51.13263 6.74040 10519 ft 326 kts 106°
2026-02-17 15:36 51.12194 6.77305 10862 ft 346 kts 127°
2026-02-17 15:36 51.10701 6.80457 11172 ft 366 kts 125°
2026-02-17 15:37 51.09238 6.83894 11476 ft 383 kts 122°
2026-02-17 15:37 51.07791 6.87483 11936 ft 393 kts 121°
2026-02-17 15:37 51.06335 6.91191 12725 ft 395 kts 121°
2026-02-17 15:37 51.04891 6.94916 13395 ft 399 kts 121°
2026-02-17 15:38 51.03427 6.98724 14040 ft 403 kts 120°
2026-02-17 15:38 51.01978 7.02505 14538 ft 409 kts 120°
2026-02-17 15:38 51.00478 7.06419 15078 ft 414 kts 120°
2026-02-17 15:39 50.97436 7.14339 16105 ft 425 kts 120°
2026-02-17 15:39 50.95881 7.18377 16599 ft 431 kts 120°
2026-02-17 15:39 50.94302 7.22474 17095 ft 436 kts 120°
2026-02-17 15:39 50.92724 7.26562 17566 ft 441 kts 119°
2026-02-17 15:40 50.91105 7.30748 18049 ft 446 kts 120°
2026-02-17 15:40 50.89482 7.34936 18460 ft 451 kts 120°
2026-02-17 15:40 50.87832 7.39189 18861 ft 455 kts 119°
2026-02-17 15:40 50.86151 7.43515 19254 ft 460 kts 120°
2026-02-17 15:41 50.84461 7.47855 19642 ft 464 kts 120°
2026-02-17 15:41 50.82774 7.52181 20026 ft 468 kts 120°
2026-02-17 15:41 50.81049 7.56598 20504 ft 470 kts 120°
2026-02-17 15:41 50.79317 7.61026 20875 ft 474 kts 120°
2026-02-17 15:42 50.77570 7.65481 21252 ft 478 kts 120°
2026-02-17 15:42 50.75853 7.69857 21594 ft 482 kts 120°
2026-02-17 15:42 50.75223 7.71459 21720 ft 483 kts 120°